[[{"header":{"parameterUnit":"m.s-1","parameterCategory":1,"la1":30.2992,"la2":30.254,"lo1":-89.0895,"lo2":-89.0443,"dy":0.0025,"dx":0.0025,"nx":19,"ny":19,"refTime":"2026-05-21T03:00:00:Z","depth":0,"parameterNumber":2,"parameterNumberName":"U-component_of_WINDS"},"data":[0,0,0,-2.4716,-2.4718,-2.4792,-2.4792,-2.4899,-2.49,0,0,0,0,0,0,0,0,0,0,0,-2.4698,-2.4699,-2.4716,-2.4718,-2.4792,-2.4792,-2.4899,-2.49,0,0,0,0,0,0,0,0,0,0,0,-2.4698,-2.4699,-2.47,-2.4718,-2.4792,-2.4792,-2.4899,-2.4839,0,0,0,0,0,0,0,0,0,0,-2.4766,-2.4752,-2.4699,-2.47,-2.4719,-2.4792,-2.4792,-2.4836,-2.4843,-2.487,0,-2.4891,0,-2.4897,-2.4908,-2.4908,0,0,0,-2.4716,-2.4746,-2.4763,-2.47,-2.472,-2.4792,-2.4758,-2.484,-2.4848,-2.4879,-2.4893,-2.4897,-2.4899,-2.4908,-2.4909,-2.5064,-2.5064,0,0,-2.4712,-2.4714,-2.4757,-2.4768,-2.4753,-2.4756,-2.476,-2.4844,-2.4861,-2.4893,-2.4899,-2.4901,-2.4909,-2.491,-2.5063,-2.5064,0,0,0,-2.4702,-2.4712,-2.4726,-2.4764,-2.4776,-2.4758,-2.4763,-2.4857,-2.4862,-2.49,-2.4902,-2.491,-2.4911,-2.5062,-2.5063,-2.5104,0,0,0,-2.4699,-2.4706,-2.4724,-2.4726,-2.4774,-2.4817,-2.4774,-2.4856,-2.4865,-2.4902,-2.491,-2.4912,-2.5061,-2.5063,-2.5101,-2.5123,0,0,0,-2.4692,-2.4705,-2.4716,-2.4726,-2.4757,-2.4815,-2.4824,-2.4858,-2.4867,-2.4908,-2.4913,-2.506,-2.5062,-2.5098,-2.5119,-2.5164,0,0,0,-2.4686,-2.4753,-2.4717,-2.4793,-2.4757,-2.4839,-2.4823,-2.4886,-2.4926,-2.491,-2.5061,-2.5063,-2.5097,-2.5116,-2.5161,-2.5202,-2.522,0,0,-2.4771,-2.4763,-2.4807,-2.4778,-2.4866,-2.4828,-2.4925,-2.4961,-2.4965,-2.5032,-2.5035,-2.5102,-2.5118,-2.5164,-2.5318,-2.5331,0,0,0,-2.4835,-2.4867,-2.489,-2.4927,-2.4956,-2.4983,-2.5004,-2.5018,-2.5074,-2.4998,-2.5132,-2.5141,-2.5168,-2.5187,-2.5199,-2.5222,-2.5072,-2.5072,-2.5072,-2.4957,-2.4957,-2.5031,-2.5041,-2.5078,-2.51,-2.5132,-2.5155,-2.5145,-2.5177,-2.5196,-2.5289,-2.5312,-2.5321,-2.5345,-2.5219,-2.5219,-2.5219,-2.5219,-2.5081,-2.5126,-2.5112,-2.5178,-2.518,-2.5237,-2.5263,-2.5255,-2.531,-2.5274,-2.5298,-2.5257,-2.5335,-2.5357,-2.5222,-2.5222,-2.5221,-2.5221,-2.5221,-2.516,-2.5182,-2.5197,-2.5253,-2.5297,-2.5307,-2.5361,-2.5361,-2.5362,-2.5385,-2.5406,-2.5406,-2.5405,-2.5396,-2.5396,-2.5396,-2.5397,-2.5397,-2.5397,-2.5236,-2.5252,-2.5295,-2.5333,-2.5358,-2.5392,-2.5418,-2.5444,-2.5474,-2.547,-2.547,-2.5458,-2.5343,-2.5313,-2.5402,-2.5401,-2.54,-2.54,-2.54,-2.5359,-2.5332,-2.5399,-2.5424,-2.547,-2.5515,-2.5515,-2.557,-2.5592,-2.562,-2.5604,-2.5519,-2.5511,-2.5502,-2.5477,-2.5603,-2.5603,-2.5603,-2.5603,-2.5426,-2.5422,-2.5491,-2.5532,-2.5573,-2.558,-2.5661,-2.5684,-2.5704,-2.5718,-2.5701,-2.5669,-2.566,-2.5658,-2.5645,-2.5622,-2.5782,-2.5782,-2.5782,-2.5502,-2.5502,-2.5568,-2.5584,-2.5621,-2.5653,-2.5729,-2.5781,-2.5798,-2.579,-2.573,-2.5723,-2.5672,-2.5655,-2.5642,-2.5623,-2.5581,0,0]},{"header":{"parameterUnit":"m.s-1","parameterCategory":1,"la1":30.2992,"la2":30.254,"lo1":-89.0895,"lo2":-89.0443,"dy":0.0025,"dx":0.0025,"nx":19,"ny":19,"refTime":"2026-05-21T03:00:00:Z","depth":0,"parameterNumber":3,"parameterNumberName":"V-component_of_WINDS"},"data":[0,0,0,3.5575,3.5576,3.5587,3.5587,3.5598,3.5598,0,0,0,0,0,0,0,0,0,0,0,3.557,3.557,3.5575,3.5576,3.5587,3.5587,3.5598,3.5598,0,0,0,0,0,0,0,0,0,0,0,3.557,3.557,3.557,3.5576,3.5587,3.5587,3.5598,3.559,0,0,0,0,0,0,0,0,0,0,3.558,3.5573,3.557,3.557,3.5576,3.5587,3.5587,3.559,3.5591,3.5591,0,3.559,0,3.5594,3.5598,3.5598,0,0,0,3.5577,3.5572,3.5577,3.557,3.5576,3.5587,3.5582,3.5591,3.5591,3.5592,3.559,3.5591,3.5594,3.5598,3.5598,3.5592,3.5592,0,0,3.5577,3.557,3.5577,3.5578,3.5575,3.5582,3.5583,3.5591,3.5589,3.559,3.5591,3.5594,3.5598,3.5598,3.5593,3.5592,0,0,0,3.5574,3.557,3.5575,3.5577,3.5579,3.5582,3.5583,3.5589,3.5591,3.5591,3.5595,3.5598,3.5598,3.5593,3.5592,3.5581,0,0,0,3.5573,3.5568,3.5575,3.5571,3.5579,3.5584,3.558,3.559,3.5592,3.5594,3.5598,3.5598,3.5593,3.5593,3.5581,3.5576,0,0,0,3.557,3.5568,3.5569,3.5571,3.5575,3.5584,3.5587,3.5591,3.5593,3.5598,3.5598,3.5593,3.5593,3.5582,3.5577,3.5573,0,0,0,3.5564,3.5558,3.5568,3.5563,3.5575,3.5577,3.5587,3.5589,3.5591,3.5598,3.5593,3.5592,3.5582,3.5578,3.5574,3.5568,3.5566,0,0,3.5553,3.5557,3.5554,3.5563,3.5562,3.5576,3.5572,3.5581,3.5587,3.559,3.559,3.5581,3.5577,3.5573,3.5552,3.555,0,0,0,3.5548,3.5546,3.5547,3.555,3.5556,3.5561,3.5571,3.5574,3.5577,3.5587,3.5579,3.5577,3.5575,3.5572,3.557,3.5569,3.5591,3.5591,3.5591,3.5523,3.5532,3.5528,3.5538,3.554,3.555,3.5553,3.5559,3.5567,3.5565,3.5565,3.5552,3.5549,3.5548,3.5546,3.5563,3.5563,3.5563,3.5563,3.5508,3.5507,3.5517,3.5518,3.5527,3.5527,3.5537,3.5542,3.5544,3.5552,3.555,3.5558,3.5545,3.5544,3.5563,3.5563,3.5563,3.5563,3.5563,3.5493,3.5494,3.5498,3.5502,3.5504,3.5515,3.5516,3.5524,3.5532,3.553,3.5532,3.5533,3.5534,3.5531,3.5531,3.5531,3.5531,3.5531,3.5531,3.5475,3.548,3.548,3.5487,3.5489,3.5494,3.5504,3.5507,3.5513,3.5519,3.5519,3.5527,3.5542,3.5546,3.553,3.553,3.553,3.553,3.553,3.5457,3.5462,3.5462,3.5465,3.5473,3.5475,3.5486,3.5491,3.5495,3.5495,3.5504,3.5514,3.5518,3.5519,3.5522,3.5502,3.5502,3.5502,3.5502,3.5444,3.5447,3.5448,3.5452,3.5457,3.5466,3.5466,3.5475,3.5484,3.5487,3.5491,3.5496,3.5497,3.5501,3.5503,3.5506,3.5481,3.5481,3.5481,3.5433,3.5436,3.5435,3.5444,3.5451,3.5457,3.5457,3.5461,3.5473,3.548,3.5489,3.549,3.5498,3.55,3.5507,3.551,3.5516,0,0]}]]